Weather History for KJLN - March, 2013

Change the Weather History Date:

Monday, March 25, 2013

  Actual Average Record
Temperature  
Mean Temperature 28 °F 52 °F  
Max Temperature 33 °F 63 °F 83 °F (1989)
Min Temperature 22 °F 40 °F 12 °F (1955)
Degree Days  
Heating Degree Days 37 14  
Month to date heating degree days 579 431  
Since 1 July heating degree days 3695 3685  
Cooling Degree Days 0 0  
Month to date cooling degree days 0 0  
Year to date cooling degree days 1 1  
Moisture  
Dew Point 21 °F    
Average Humidity 72    
Maximum Humidity 81    
Minimum Humidity 63    
Precipitation  
Precipitation T in 0.12 in 1.93 in (2010)
Month to date precipitation 1.66 2.68  
Year to date precipitation 6.81 7.03  
Snow  
Snow T in - - ()
Month to date snowfall T  
Snow Depth T in    
Sea Level Pressure  
Sea Level Pressure 30.25 in    
Wind  
Wind Speed 12 mph (WNW)    
Max Wind Speed 22 mph    
Max Gust Speed 28 mph    
Visibility 10 miles    
Events Snow    
T = Trace of Precipitation, MM = Missing Value Source: NWS Daily Summary

Daily Weather History Graph

Daily Weather History Graph

Search for Another Location

Airport or City:

Trip Planner

Search our weather history database for the weather conditions in past years. The results will help you decide how hot, cold, wet, or windy it might be!

Date:

Astronomy

Mar. 25, 2013 Rise Set
Actual Time 7:13 AM CDT 7:34 PM CDT
Civil Twilight 6:47 AM CDT 8:00 PM CDT
Nautical Twilight 6:17 AM CDT 8:31 PM CDT
Astronomical Twilight 5:46 AM CDT 9:02 PM CDT
Moon 6:08 PM CDT (3/25) 5:55 AM CDT (3/25)
Length of Visible Light 13h 12m
Length of Day
12h 20m
Waxing Gibbous, 96% of the Moon is Illuminated
Mar 25
Waxing Gibbous
Mar 27
Full
Apr 2
Last Quarter
Apr 10
New
Apr 18
First Quarter

Hourly Weather History & Observations

Time (CDT) Temp. Windchill Dew Point Humidity Pressure Visibility Wind Dir Wind Speed Gust Speed Precip Events Conditions
12:53 AM 25.0 °F 16.3 °F 19.0 °F 78% 30.15 in 10.0 mi West 8.1 mph - N/A   Clear
1:53 AM 25.0 °F 15.5 °F 19.0 °F 78% 30.14 in 10.0 mi West 9.2 mph - N/A   Clear
2:53 AM 24.1 °F 14.4 °F 19.0 °F 81% 30.14 in 10.0 mi West 9.2 mph - N/A   Clear
3:53 AM 24.1 °F 12.5 °F 18.0 °F 77% 30.14 in 10.0 mi West 12.7 mph - N/A   Clear
4:53 AM 23.0 °F 11.1 °F 17.1 °F 78% 30.15 in 10.0 mi WNW 12.7 mph - N/A   Clear
5:53 AM 21.9 °F 9.8 °F 16.0 °F 78% 30.16 in 10.0 mi WNW 12.7 mph - N/A   Clear
6:53 AM 23.0 °F 11.1 °F 17.1 °F 78% 30.16 in 10.0 mi WNW 12.7 mph - N/A   Overcast
7:53 AM 23.0 °F 11.7 °F 18.0 °F 81% 30.18 in 10.0 mi WNW 11.5 mph - N/A   Overcast
8:53 AM 24.1 °F 12.0 °F 18.0 °F 77% 30.22 in 10.0 mi WNW 13.8 mph - N/A   Overcast
9:53 AM 26.1 °F 13.1 °F 19.9 °F 78% 30.23 in 10.0 mi NW 17.3 mph 25.3 mph N/A   Overcast
10:53 AM 28.0 °F 16.1 °F 21.9 °F 78% 30.26 in 10.0 mi NW 16.1 mph - N/A   Overcast
11:53 AM 28.9 °F 16.5 °F 23.0 °F 78% 30.27 in 10.0 mi WNW 18.4 mph - N/A   Overcast
12:53 PM 30.9 °F 18.7 °F 23.0 °F 72% 30.27 in 10.0 mi WNW 19.6 mph - 0.00 in   Overcast
1:53 PM 32.0 °F 20.1 °F 23.0 °F 69% 30.27 in 10.0 mi NW 19.6 mph 25.3 mph N/A   Mostly Cloudy
2:53 PM 33.1 °F 22.2 °F 23.0 °F 66% 30.28 in 10.0 mi NW 17.3 mph 25.3 mph N/A   Overcast
3:53 PM 32.0 °F 19.5 °F 21.0 °F 64% 30.28 in 10.0 mi WNW 21.9 mph 27.6 mph N/A   Overcast
4:53 PM 32.0 °F 20.8 °F 21.0 °F 64% 30.29 in 10.0 mi NW 17.3 mph 25.3 mph N/A   Mostly Cloudy
5:53 PM 32.0 °F 20.5 °F 21.0 °F 64% 30.30 in 10.0 mi WNW 18.4 mph 27.6 mph N/A   Overcast
6:53 PM 30.0 °F 19.5 °F 23.0 °F 75% 30.32 in 6.0 mi NW 13.8 mph 24.2 mph 0.00 in Snow Snow
7:00 PM 30.2 °F 20.2 °F 23.0 °F 75% 30.29 in 8.0 mi NW 12.7 mph - 0.00 in Snow Light Snow
7:53 PM 30.0 °F 20.5 °F 23.0 °F 75% 30.33 in 9.0 mi WNW 11.5 mph - 0.00 in   Overcast
8:22 PM 30.2 °F 18.5 °F 23.0 °F 75% 30.31 in 10.0 mi WNW 17.3 mph - N/A   Overcast
8:53 PM 28.9 °F 21.1 °F 23.0 °F 78% 30.34 in 10.0 mi WNW 8.1 mph - N/A   Overcast
9:53 PM 28.9 °F 21.1 °F 23.0 °F 78% 30.36 in 10.0 mi WNW 8.1 mph - N/A   Overcast
10:53 PM 28.0 °F 20.8 °F 23.0 °F 81% 30.37 in 10.0 mi WNW 6.9 mph - N/A   Clear
11:53 PM 27.0 °F 19.5 °F 21.9 °F 81% 30.38 in 10.0 mi NW 6.9 mph - N/A   Clear